TimeCAT,TemperatureF,Dew PointF,Humidity,Sea Level PressureIn,VisibilityMPH,Wind Direction,Wind SpeedMPH,Gust SpeedMPH,PrecipitationIn,Events,Conditions,WindDirDegrees,DateUTC
12:00 AM,71.6,23.0,16,29.98,-9999.0,South,6.9,-,N/A,,Clear,180,2012-10-04 22:00:00
1:00 AM,75.2,21.2,13,29.98,-9999.0,SSW,10.4,-,N/A,,Clear,210,2012-10-04 23:00:00
2:00 AM,69.8,21.2,16,29.98,-9999.0,West,3.5,-,N/A,,Clear,260,2012-10-05 00:00:00
3:00 AM,66.2,21.2,18,29.98,-9999.0,South,4.6,-,N/A,,Clear,180,2012-10-05 01:00:00
6:00 AM,62.6,23.0,22,30.01,-9999.0,South,5.8,-,N/A,,Clear,170,2012-10-05 04:00:00
7:00 AM,66.2,23.0,19,30.04,-9999.0,NNE,3.5,-,N/A,,Clear,20,2012-10-05 05:00:00
8:00 AM,76,25,7,,6,East,2.3,,,,,100,2012-10-05 06:00:00
8:00 AM,77.0,24.8,14,30.06,-9999.0,Variable,2.3,-,N/A,,Clear,0,2012-10-05 06:00:00
9:00 AM,82.4,24.8,12,30.06,-9999.0,East,5.8,-,N/A,,Clear,90,2012-10-05 07:00:00
10:00 AM,87.8,23.0,9,30.06,-9999.0,NE,5.8,-,N/A,,Clear,40,2012-10-05 08:00:00
11:00 AM,91.4,23.0,8,30.04,-9999.0,SE,4.6,-,N/A,,Clear,130,2012-10-05 09:00:00
12:00 PM,95.0,21.2,7,30.04,-9999.0,Variable,3.5,-,N/A,,Clear,0,2012-10-05 10:00:00
1:00 PM,96.8,23.0,7,29.98,-9999.0,Variable,6.9,-,N/A,,Clear,0,2012-10-05 11:00:00
2:00 PM,98,20,4,,6,East,6.9,,,,Smoke,90,2012-10-05 12:00:00
2:00 PM,98.6,21.2,6,29.95,-9999.0,East,6.9,-,N/A,,Clear,90,2012-10-05 12:00:00
3:00 PM,98.6,21.2,6,29.95,-9999.0,Variable,2.3,-,N/A,,Clear,0,2012-10-05 13:00:00
4:00 PM,98.6,21.2,6,29.92,-9999.0,Variable,4.6,-,N/A,,Clear,0,2012-10-05 14:00:00
5:00 PM,98.6,21.2,6,29.92,-9999.0,NNW,5.8,-,N/A,,Clear,340,2012-10-05 15:00:00
6:00 PM,95.0,21.2,7,29.95,-9999.0,ENE,9.2,-,N/A,,Clear,60,2012-10-05 16:00:00
7:00 PM,86.0,21.2,9,29.95,-9999.0,ENE,9.2,-,N/A,,Clear,70,2012-10-05 17:00:00
8:00 PM,85,23,4,,6,NE,8.1,,,,,50,2012-10-05 18:00:00
8:00 PM,84.2,23.0,11,29.98,-9999.0,NE,8.1,-,N/A,,Clear,50,2012-10-05 18:00:00
9:00 PM,84.2,24.8,11,29.98,-9999.0,NE,8.1,-,N/A,,Clear,40,2012-10-05 19:00:00
10:00 PM,82.4,28.4,14,30.01,-9999.0,NNE,5.8,-,N/A,,Clear,30,2012-10-05 20:00:00
11:00 PM,82.4,28.4,14,30.01,-9999.0,NNE,11.5,-,N/A,,Clear,30,2012-10-05 21:00:00